Content
SEND FEEDBACK

Daily
Averages
Monthly
Summary
United States of America

ROCK HILL, NEW YORK


Home > North America > United States > New York
Elevation: 384 meters     Latitude: 41 35N     Longitude: 074 37W

WEATHER
 
SELECT A DAY
Number of Records: 449,070;   Date Range: 1/1/95 - 9/29/14
 
SHARE

PRINT THIS DATA

[ ← Previous Day ]
WEATHER ALMANAC - 11 JANUARY, 2014
[ Next Day → ]
[ °F ]   °C
Weather ElementAverageHighLow
Temperature7.4 °C13 °C (2:55 pm)0 °C (12:35 am)
Dewpoint5.3 °C11 °C (1:55 pm)-2 °C (12:35 am)
Humidity87 %94 % (11:15 am)76 % (6:35 pm)
Barometer1004.4 hPa1020.7 hPa (12:35 am)992.6 hPa (7:35 pm)
Wind Speed13 km/h25.9 km/h (12:15 pm)
Wind Gust35.2 km/h (11:55 am)
Weather ElementAverage
Visibility8.5 km
Wind DirectionSSE (159.9 °)

Weather ElementTotal
Precipitation56.13 mm
Heating Degree Days11.8 (Base 18.3)
Averaged from 71 records on 11 January, 2014
WEATHER CONDITIONS BREAKOUT
WIND DIRECTION BREAKOUT
WEATHER BY HOUR - 11 JANUARY, 2014
[ °F ]   °C
Local TimeTemperatureDewpointHumidityBarometerVisibilityWind DirectionWind SpeedGust SpeedPrecipitationEventsConditions
12:35 AM0 °C-2 °C87 %1020.7 hPa1.6 kmEast (80°)7.4 km/hOvercast
12:55 AM1 °C-2 °C81 %1020 hPa0.8 kmEast (90°)9.3 km/hOvercast
1:15 AM1 °C-1 °C87 %1019.6 hPa0.8 kmEast (80°)11.1 km/hOvercast
1:35 AM1 °C-1 °C87 %1019.3 hPa0.8 kmEast (90°)11.1 km/hOvercast
1:55 AM1 °C-1 °C87 %1018.6 hPa0.8 kmEast (80°)9.3 km/hOvercast
2:15 AM1 °C-1 °C87 %1018.3 hPa1.3 kmEast (80°)13 km/hOvercast
2:35 AM1 °C-1 °C87 %1017.9 hPa1.3 kmEast (80°)13 km/hOvercast
2:55 AM2 °C-1 °C81 %1017.6 hPa1.6 kmEast (90°)13 km/hOvercast
3:15 AM2 °C0 °C87 %1017.3 hPa0.3 kmEast (100°)13 km/h0.25 mmOvercast
3:35 AM2 °C0 °C87 %1016.6 hPa0.3 kmEast (90°)14.8 km/h1.02 mmOvercast
3:55 AM2 °C1 °C93 %1016.3 hPa0.3 kmEast (90°)11.1 km/h1.52 mmOvercast
4:15 AM2 °C1 °C93 %1015.9 hPa0.3 kmEast (100°)11.1 km/h0.51 mmOvercast
4:35 AM3 °C1 °C87 %1015.2 hPa0.3 kmEast (100°)9.3 km/h1.27 mmOvercast
4:55 AM3 °C1 °C87 %1014.9 hPa0.3 kmEast (100°)5.6 km/h1.78 mmOvercast
5:15 AM3 °C2 °C93 %1014.2 hPa0.3 kmCalm0.51 mmOvercast
5:35 AM3 °C1 °C87 %1014.2 hPa0.3 kmCalm1.02 mmOvercast
5:55 AM3 °C2 °C93 %1013.5 hPa0.3 kmEast (90°)7.4 km/h1.52 mmOvercast
6:15 AM4 °C3 °C93 %1013.2 hPa0.3 kmEast (100°)7.4 km/h0.51 mmOvercast
6:35 AM4 °C2 °C87 %1012.9 hPa0.3 kmENE (70°)7.4 km/h1.02 mmOvercast
6:55 AM4 °C3 °C93 %1011.9 hPa0.3 kmEast (80°)9.3 km/h1.52 mmOvercast
7:15 AM4 °C2 °C87 %1012.2 hPa0.3 kmCalm0.51 mmOvercast
7:35 AM4 °C2 °C87 %1010.8 hPa0.3 kmENE (70°)11.1 km/h0.76 mmOvercast
7:55 AM4 °C3 °C93 %1010.8 hPa0.3 kmESE (110°)7.4 km/h1.02 mmOvercast
8:15 AM5 °C3 °C87 %1010.8 hPa0.3 kmSE (140°)11.1 km/h0.25 mmOvercast
8:35 AM6 °C4 °C87 %1010.2 hPa0.3 kmSSE (150°)13 km/h0.25 mmOvercast
8:55 AM6 °C4 °C87 %1009.8 hPa0.3 kmSSE (160°)11.1 km/h0.51 mmOvercast
9:15 AM7 °C5 °C87 %1009.5 hPa0.3 kmSSE (160°)14.8 km/h0.76 mmOvercast
9:35 AM7 °C6 °C93 %1008.5 hPa0.3 kmSouth (170°)16.7 km/h1.02 mmOvercast
9:55 AM8 °C6 °C87 %1007.8 hPa0.3 kmSouth (170°)18.5 km/h1.02 mmOvercast
10:15 AM8 °C7 °C93 %1007.1 hPa0.3 kmSouth (180°)18.5 km/h27.8 km/h0.25 mmOvercast
10:35 AM9 °C7 °C87 %1006.4 hPa0.3 kmSouth (170°)18.5 km/h29.6 km/h0.25 mmOvercast
10:55 AM9 °C8 °C93 %1005.8 hPa0.3 kmSouth (170°)16.7 km/h0.76 mmOvercast
11:15 AM10 °C9 °C94 %1005.1 hPa4.8 kmSouth (170°)22.2 km/h31.5 km/h1.78 mmOvercast
11:35 AM11 °C9 °C88 %1004.1 hPa8 kmSouth (170°)22.2 km/h29.6 km/h2.79 mmOvercast
11:55 AM11 °C9 °C88 %1003 hPa12.9 kmSouth (180°)18.5 km/h35.2 km/h3.56 mmOvercast
12:15 PM12 °C10 °C88 %1001.7 hPa16.1 kmSSE (160°)25.9 km/h33.3 km/hOvercast
12:35 PM12 °C10 °C88 %1001.4 hPa14.5 kmSouth (180°)16.7 km/h27.8 km/h2.29 mmOvercast
12:55 PM12 °C10 °C88 %1000.7 hPa6.4 kmSouth (180°)20.4 km/h35.2 km/h3.81 mmOvercast
1:15 PM12 °C10 °C88 %1000.3 hPa14.5 kmSouth (180°)13 km/h3.3 mmOvercast
1:35 PM12 °C10 °C88 %999.3 hPa16.1 kmSouth (170°)16.7 km/h27.8 km/h3.56 mmOvercast
1:55 PM12 °C11 °C94 %998.3 hPa16.1 kmSouth (180°)18.5 km/h29.6 km/h3.56 mmOvercast
2:15 PM12 °C11 °C94 %998 hPa16.1 kmSSW (200°)14.8 km/h31.5 km/hOvercast
2:35 PM12 °C11 °C94 %997.3 hPa16.1 kmSSW (200°)13 km/h27.8 km/hMostly Cloudy
2:55 PM13 °C11 °C88 %997.6 hPa14.5 kmSSW (200°)16.7 km/h29.6 km/h2.03 mmOvercast
3:15 PM13 °C11 °C88 %997.3 hPa16.1 kmSSW (210°)14.8 km/h29.6 km/h1.52 mmOvercast
3:35 PM13 °C11 °C88 %996.6 hPa16.1 kmSSW (200°)13 km/h25.9 km/h2.29 mmOvercast
3:55 PM13 °C11 °C88 %997 hPa16.1 kmWSW (240°)5.6 km/h3.05 mmOvercast
4:15 PM12 °C10 °C88 %997 hPa16.1 kmSW (230°)16.7 km/h33.3 km/h0.25 mmOvercast
4:35 PM12 °C9 °C82 %997 hPa16.1 kmWSW (240°)9.3 km/h0.25 mmMostly Cloudy
4:55 PM12 °C9 °C82 %996.6 hPa16.1 kmWSW (240°)7.4 km/h0.51 mmMostly Cloudy
5:15 PM11 °C9 °C88 %996.6 hPa16.1 kmSSW (200°)9.3 km/h0.25 mmMostly Cloudy
5:35 PM11 °C8 °C82 %995.9 hPa16.1 kmSSW (210°)11.1 km/h0.25 mmMostly Cloudy
5:55 PM11 °C8 °C82 %995.6 hPa16.1 kmSouth (190°)14.8 km/h0.51 mmPartly Cloudy
6:15 PM11 °C8 °C82 %995.3 hPa16.1 kmSSW (200°)16.7 km/hMostly Cloudy
6:35 PM11 °C7 °C76 %994.2 hPa16.1 kmSouth (190°)18.5 km/hScattered Clouds
6:55 PM10 °C7 °C82 %993.9 hPa16.1 kmSouth (190°)11.1 km/hClear
7:15 PM10 °C7 °C82 %993.6 hPa16.1 kmSouth (190°)9.3 km/h27.8 km/hPartly Cloudy
7:35 PM9 °C7 °C87 %992.6 hPa16.1 kmSouth (180°)13 km/hClear
7:55 PM9 °C7 °C87 %992.6 hPa16.1 kmCalmPartly Cloudy
8:15 PM9 °C7 °C87 %993.6 hPa16.1 kmSW (220°)14.8 km/hMostly Cloudy
8:35 PM9 °C7 °C87 %993.6 hPa16.1 kmWSW (250°)13 km/h25.9 km/hOvercast
8:55 PM9 °C6 °C82 %993.9 hPa11.3 kmWSW (250°)13 km/h33.3 km/h0.76 mmMostly Cloudy
9:15 PM9 °C6 °C82 %993.9 hPa16.1 kmWSW (240°)13 km/hMostly Cloudy
9:35 PM8 °C6 °C87 %993.9 hPa16.1 kmWSW (240°)13 km/hMostly Cloudy
9:55 PM8 °C6 °C87 %994.6 hPa16.1 kmWSW (240°)13 km/hOvercast
10:15 PM8 °C6 °C87 %994.6 hPa16.1 kmSW (230°)16.7 km/hOvercast
10:35 PM8 °C6 °C87 %994.6 hPa16.1 kmWSW (250°)20.4 km/h31.5 km/hOvercast
10:55 PM8 °C5 °C81 %995.3 hPa16.1 kmWSW (250°)16.7 km/h29.6 km/hOvercast
11:15 PM8 °C5 °C81 %995.3 hPa16.1 kmWest (280°)18.5 km/h25.9 km/hOvercast
11:35 PM7 °C3 °C76 %995.6 hPa16.1 kmWNW (290°)20.4 km/h27.8 km/hOvercast
11:55 PM7 °C3 °C76 %995.6 hPa16.1 kmWNW (290°)16.7 km/hOvercast
Hourly data recorded from KMSV, located 0 kilometers away from Rock Hill, New York







STORIES FROM OUR PARTNERS